Weather History for KAIA - May, 2014

Change the Weather History Date:

Friday, May 16, 2014

  Actual Average Record
Temperature  
Mean Temperature 49 °F 55 °F  
Max Temperature 63 °F 71 °F 92 °F (1934)
Min Temperature 34 °F 39 °F 29 °F (2006)
Degree Days  
Heating Degree Days 16 10  
Month to date heating degree days 294 208  
Since 1 July heating degree days 7377 7097  
Cooling Degree Days 0 0  
Month to date cooling degree days 0 0  
Year to date cooling degree days 0 0  
Moisture  
Dew Point 38 °F    
Average Humidity 67    
Maximum Humidity 92    
Minimum Humidity 42    
Precipitation  
Precipitation 0.06 in 0.07 in 1.79 in (1991)
Month to date precipitation 2.91 1.20  
Year to date precipitation 5.71 4.06  
Sea Level Pressure  
Sea Level Pressure 30.03 in    
Wind  
Wind Speed 13 mph (NNE)    
Max Wind Speed 30 mph    
Max Gust Speed 39 mph    
Visibility 10 miles    
Events Rain    
T = Trace of Precipitation, MM = Missing Value Source: NWS Daily Summary

Daily Weather History Graph

Daily Weather History Graph

Search for Another Location

Airport or City:

Trip Planner

Search our weather history database for the weather conditions in past years. The results will help you decide how hot, cold, wet, or windy it might be!

Date:

Astronomy

May. 16, 2014 Rise Set
Actual Time 5:29 AM MDT 8:06 PM MDT
Civil Twilight 4:57 AM MDT 8:38 PM MDT
Nautical Twilight 4:17 AM MDT 9:18 PM MDT
Astronomical Twilight 3:32 AM MDT 10:04 PM MDT
Moon 10:15 PM MDT (5/16) 7:13 AM MDT (5/16)
Length of Visible Light 15h 40m
Length of Day
14h 36m
Waning Gibbous, 95% of the Moon is Illuminated
May 16
Waning Gibbous
May 21
Last Quarter
May 28
New
Jun 5
First Quarter
Jun 12
Full

Hourly Weather History & Observations

Time (MDT) Temp. Windchill Dew Point Humidity Pressure Visibility Wind Dir Wind Speed Gust Speed Precip Events Conditions
12:53 AM 46.0 °F 43.9 °F 33.1 °F 61% 30.07 in 10.0 mi ESE 4.6 mph - N/A   Mostly Cloudy
1:53 AM 46.4 °F 41.1 °F 33.8 °F 62% 30.06 in 10.0 mi SE 11.5 mph - N/A   Overcast
2:53 AM 43.0 °F 36.0 °F 30.0 °F 60% 29.99 in 10.0 mi SSE 13.8 mph - N/A   Clear
3:53 AM 41.0 °F 34.7 °F 28.9 °F 62% 29.98 in 10.0 mi SSE 10.4 mph - N/A   Clear
4:53 AM 41.0 °F 37.1 °F 30.0 °F 65% 29.97 in 10.0 mi South 5.8 mph - N/A   Mostly Cloudy
5:53 AM 42.1 °F - 32.0 °F 67% 29.95 in 10.0 mi Calm Calm - N/A   Overcast
6:53 AM 42.1 °F 36.6 °F 37.9 °F 85% 30.01 in 4.0 mi West 9.2 mph - 0.03 in Rain Light Rain
7:53 AM 46.9 °F - 45.0 °F 93% 29.99 in 10.0 mi WNW 12.7 mph - 0.01 in   Overcast
8:53 AM 51.1 °F - 46.0 °F 83% 29.99 in 10.0 mi NW 16.1 mph - N/A   Mostly Cloudy
9:53 AM 54.0 °F - 44.1 °F 69% 29.98 in 10.0 mi NW 19.6 mph - N/A   Partly Cloudy
10:53 AM 55.9 °F - 43.0 °F 62% 30.00 in 10.0 mi NW 23.0 mph 31.1 mph N/A   Partly Cloudy
11:53 AM 59.0 °F - 41.0 °F 51% 29.98 in 10.0 mi NW 21.9 mph 32.2 mph N/A   Scattered Clouds
12:53 PM 61.0 °F - 37.9 °F 42% 29.97 in 10.0 mi NNW 27.6 mph 38.0 mph N/A   Scattered Clouds
1:53 PM 60.8 °F - 42.8 °F 52% 30.03 in 10.0 mi North 23.0 mph 26.5 mph N/A   Mostly Cloudy
2:53 PM 59.0 °F - 42.1 °F 53% 30.01 in 10.0 mi North 24.2 mph 29.9 mph 0.00 in   Overcast
3:53 PM 55.9 °F - 45.0 °F 67% 30.04 in 10.0 mi North 20.7 mph - 0.02 in   Overcast
4:53 PM 55.9 °F - 39.9 °F 55% 30.05 in 10.0 mi NNE 23.0 mph 27.6 mph N/A   Partly Cloudy
5:53 PM 54.0 °F - 39.0 °F 57% 30.07 in 10.0 mi NNE 17.3 mph - N/A   Overcast
6:53 PM 51.1 °F - 39.0 °F 63% 30.08 in 10.0 mi NE 15.0 mph - N/A   Mostly Cloudy
7:53 PM 46.0 °F 43.1 °F 39.0 °F 76% 30.10 in 10.0 mi ENE 5.8 mph - N/A   Clear
8:53 PM 41.0 °F 39.0 °F 36.0 °F 82% 30.13 in 10.0 mi East 3.5 mph - N/A   Clear
9:53 PM 39.0 °F 34.8 °F 35.1 °F 86% 30.12 in 10.0 mi East 5.8 mph - N/A   Clear
10:53 PM 37.9 °F 34.4 °F 34.0 °F 86% 30.12 in 10.0 mi SSE 4.6 mph - N/A   Clear
11:53 PM 37.9 °F - 35.1 °F 89% 30.12 in 10.0 mi Calm Calm - N/A   Partly Cloudy